Volver al catálogo

STARLINK-11275

ActivoComunicacionesVLEO
NORAD 61579·PAYLOAD·🇺🇸 United States

Lanzado Oct 18, 2024 desde Cape Canaveral Space Force Station

Loading…

Próximos Pases (próximas 24 horas)

TLE

ActualizadoSource: CelesTrak SupGP

Época: Sep 14, 2026, 21:30 UTC

1 61579C 24187F   26257.89631944 -.00002051  00000+0 -16891-4 0  2571
2 61579  53.1574  83.2730 0001218  82.4795 179.7625 15.69708850    12

Sigue STARLINK-11275 en tiempo real con AllMySat

Download on the App Store